Regional Weather Roundup
Issued by NWS

Home | Current Version | Previous Version | Graphics & Text | Print | Product List | Glossary On
Versions: 1 2 3 4 5 6 7 8 9 10 11 12 13 14 15 16 17 18 19 20 21 22 23 24 25 26 27 28 29 30 31 32 33 34 35 36 37 38 39 40 41 42 43 44 45 46 47 48 49 50
000
ASUS43 KLSX 300610
RWRMO

WEATHER SUMMARY FOR MISSOURI
NATIONAL WEATHER SERVICE SPRINGFIELD MO
100 AM CDT SUN AUG 30 2015

NOTE: "FAIR" INDICATES FEW OR NO CLOUDS BELOW 12,000 FEET WITH NO
       SIGNIFICANT WEATHER AND/OR OBSTRUCTIONS TO VISIBILITY.
       CURRENT SKY AND/OR WEATHER CONDITIONS ARE NOT AVAILABLE FOR
       CHILLICOTHE AND FARMINGTON.

MOZ001>031-035>038-043-044-053-054-300700-
...NORTHERN AND WESTERN MISSOURI...

CITY           SKY/WX    TMP DP  RH WIND       PRES   REMARKS
KANSAS CTY INT CLOUDY    65  61  87 NW3       30.05S
6HR MIN TEMP:  65; 6HR MAX TEMP:  74;

KANSAS C DTWN  FAIR      70  66  87 NW3       30.03S
6HR MIN TEMP:  70; 6HR MAX TEMP:  76;

LEE`S SUMMIT   FAIR      68  65  90 N5        30.04S
6HR MIN TEMP:  68; 6HR MAX TEMP:  76;

ST JOSEPH      CLOUDY    63  62  97 CALM      30.05S
6HR MIN TEMP:  61; 6HR MAX TEMP:  71;

CHILLICOTHE      N/A     68  66  93 CALM      30.04S
6HR MIN TEMP:  68; 6HR MAX TEMP:  79;

KIRKSVILLE     CLOUDY    67  65  93 CALM      30.05R FOG
6HR MIN TEMP:  65; 6HR MAX TEMP:  76;


$$
MOZ066>068-077>081-088>096-101>105-300700-
...SOUTHWEST MISSOURI...

CITY           SKY/WX    TMP DP  RH WIND       PRES   REMARKS
SPRINGFIELD    FAIR      70  65  84 SE7       30.01F
6HR MIN TEMP:  69; 6HR MAX TEMP:  78;

JOPLIN         CLOUDY    72  70  93 MISG      30.01S FOG
6HR MIN TEMP:  71; 6HR MAX TEMP:  79;


$$
MOZ032>034-039>042-045>050-055>058-069>072-300700-
...CENTRAL MISSOURI...

CITY           SKY/WX    TMP DP  RH WIND       PRES   REMARKS
COLUMBIA       FAIR      72  69  90 CALM      30.03S
6HR MIN TEMP:  72; 6HR MAX TEMP:  77;

JEFFERSON CITY MOCLDY    71  69  93 CALM      30.01S
6HR MIN TEMP:  71; 6HR MAX TEMP:  79; 6HR PCP: TRACE;

ROLLA          FAIR      67  64  90 S8        30.02F
6HR MIN TEMP:  66; 6HR MAX TEMP:  77;

SEDALIA        FAIR      68  65  90 CALM      30.03S FOG
6HR MIN TEMP:  69; 6HR MAX TEMP:  79;

WHITEMAN AFB   DRZL/FOG  68  68 100 CALM      30.01S VSB 1/2
WARRENSBURG    FAIR      68  66  94 CALM      30.02S
OSAGE BEACH    MOCLDY    72  66  83 SE5       30.03S

$$
MOZ051-052-059>065-300700-
...EAST CENTRAL MISSOURI...

CITY           SKY/WX    TMP DP  RH WIND       PRES   REMARKS
ST LOUIS INTL  CLOUDY    75  72  88 S5        30.02R
SPIRIT OF STL  FAIR      72  70  93 CALM      30.01S
6HR MIN TEMP:  72; 6HR MAX TEMP:  80;

ST CHARLES     FAIR      70  69  97 E3        30.01S
6HR MIN TEMP:  70; 6HR MAX TEMP:  79;


$$
MOZ072>076-082>087-097>100-106>115-300700-
...SOUTH CENTRAL AND SOUTHEAST MISSOURI...

CITY           SKY/WX    TMP DP  RH WIND       PRES   REMARKS
CAPE GIRARDEAU CLOUDY    73  71  93 CALM      30.05R
6HR MIN TEMP:  72; 6HR MAX TEMP:  78;

FARMINGTON     CLOUDY    70  68  94 SE3       30.08S
6HR MIN TEMP:  70; 6HR MAX TEMP:  75; 6HR PCP:  0.05;

POPLAR BLUFF   CLOUDY    72  69  90 CALM      30.02S
6HR MIN TEMP:  71; 6HR MAX TEMP:  76; 6HR PCP: TRACE;

WEST PLAINS    MOCLDY    69  65  86 CALM      30.05F
6HR MIN TEMP:  67; 6HR MAX TEMP:  74;


$$


USA.gov is the U.S. government's official web portal to all federal, state and local government web resources and services.